When you browse on this site, cookies collect data to enhance your experience and personalize the content and advertising you see.
Visit our Privacy Policy to learn more. By continuing to use the site, you agree to this use of cookies and data.
  • In Hungary
  • List of Countries
  • For 7 days
  • Water Temperature
  • Satellite Maps
  • Weather Map
  • News
  • Weather Widgets
  • user-avatar
    Login

    Hourly Weather Cisterna di Latina

    Today, 21 January, Monday

    Time Temperature Precipitation Wind Pressure Humidity
    00:00 +7°C° 0 mm 3 mps 751 mmHg 87%
    01:00 +7°C° 0 mm 2 mps 751 mmHg 87%
    02:00 +7°C° 0.1 mm 2 mps 750 mmHg 87%
    03:00 +7°C° 0.1 mm 2 mps 750 mmHg 87%
    04:00 +7°C° 0.1 mm 2 mps 750 mmHg 88%
    05:00 +7°C° 0.1 mm 2 mps 750 mmHg 88%
    06:00 +7°C° 0.1 mm 2 mps 750 mmHg 88%
    07:00 +7°C° 0.1 mm 2 mps 750 mmHg 88%
    08:00 +8°C° 0.1 mm 2 mps 750 mmHg 87%
    09:00 +8°C° 0.1 mm 3 mps 750 mmHg 85%
    10:00 +9°C° 0.1 mm 3 mps 750 mmHg 83%
    11:00 +10°C° 0.2 mm 3 mps 750 mmHg 79%
    12:00 +10°C° 0.2 mm 2 mps 750 mmHg 76%
    13:00 +12°C° 0.2 mm 2 mps 750 mmHg 72%
    14:00 +12°C° 0 mm 2 mps 750 mmHg 72%
    15:00 +12°C° 0 mm 2 mps 749 mmHg 72%
    16:00 +12°C° 0 mm 2 mps 749 mmHg 73%
    17:00 +10°C° 0.2 mm 2 mps 749 mmHg 76%
    18:00 +9°C° 0.2 mm 2 mps 749 mmHg 79%
    19:00 +9°C° 0.2 mm 2 mps 749 mmHg 82%
    20:00 +8°C° 0.8 mm 2 mps 749 mmHg 83%
    21:00 +8°C° 0.8 mm 2 mps 749 mmHg 85%
    22:00 +8°C° 0.8 mm 2 mps 749 mmHg 86%
    23:00 +8°C° 1.3 mm 2 mps 749 mmHg 86%

    Tomorrow, 22 January, Tuesday

    Time Temperature Precipitation Wind Pressure Humidity
    00:00 +8°C° 1.3 mm 3 mps 748 mmHg 86%
    01:00 +7°C° 1.3 mm 3 mps 748 mmHg 86%
    02:00 +7°C° 2.3 mm 3 mps 747 mmHg 87%
    03:00 +7°C° 2.3 mm 3 mps 747 mmHg 88%
    04:00 +7°C° 2.3 mm 2 mps 747 mmHg 89%
    05:00 +7°C° 1.6 mm 2 mps 746 mmHg 89%
    06:00 +7°C° 1.6 mm 2 mps 746 mmHg 88%
    07:00 +7°C° 1.6 mm 2 mps 746 mmHg 88%
    08:00 +7°C° 0.7 mm 2 mps 746 mmHg 86%
    09:00 +8°C° 0.7 mm 1 mps 746 mmHg 84%
    10:00 +8°C° 0.7 mm 1 mps 746 mmHg 83%
    11:00 +8°C° 0.1 mm 2 mps 746 mmHg 80%
    12:00 +9°C° 0.1 mm 2 mps 745 mmHg 77%
    13:00 +9°C° 0.1 mm 2 mps 745 mmHg 74%
    14:00 +9°C° 0 mm 3 mps 745 mmHg 75%
    15:00 +9°C° 0 mm 3 mps 744 mmHg 76%
    16:00 +8°C° 0 mm 3 mps 744 mmHg 78%
    17:00 +8°C° 0 mm 3 mps 744 mmHg 79%
    18:00 +7°C° 0 mm 3 mps 744 mmHg 80%
    19:00 +7°C° 0 mm 2 mps 744 mmHg 81%
    20:00 +6°C° 0 mm 2 mps 744 mmHg 82%
    21:00 +6°C° 0 mm 2 mps 744 mmHg 82%
    22:00 +7°C° 0 mm 1 mps 744 mmHg 82%
    23:00 +6°C° 0 mm 1 mps 744 mmHg 83%

    Day after tomorrow, 23 January, Wednesday

    Time Temperature Precipitation Wind Pressure Humidity
    00:00 +6°C° 0 mm 1 mps 743 mmHg 83%
    01:00 +6°C° 0 mm 1 mps 743 mmHg 84%
    02:00 +6°C° 0 mm 1 mps 743 mmHg 84%
    03:00 +5°C° 0 mm 2 mps 743 mmHg 83%
    04:00 +5°C° 0 mm 2 mps 742 mmHg 82%
    05:00 +5°C° 0 mm 2 mps 742 mmHg 82%
    06:00 +5°C° 0 mm 2 mps 742 mmHg 81%
    07:00 +5°C° 0 mm 2 mps 741 mmHg 81%
    08:00 +5°C° 0.1 mm 3 mps 741 mmHg 79%
    09:00 +5°C° 0.1 mm 4 mps 741 mmHg 77%
    10:00 +6°C° 0.1 mm 4 mps 740 mmHg 75%
    11:00 +6°C° 0.5 mm 4 mps 740 mmHg 77%
    12:00 +6°C° 0.5 mm 5 mps 739 mmHg 78%
    13:00 +6°C° 0.5 mm 5 mps 739 mmHg 80%
    14:00 +6°C° 0.6 mm 4 mps 738 mmHg 82%
    15:00 +7°C° 0.6 mm 4 mps 738 mmHg 84%
    16:00 +7°C° 0.6 mm 4 mps 737 mmHg 86%
    17:00 +7°C° 1.4 mm 4 mps 737 mmHg 86%
    18:00 +7°C° 1.4 mm 4 mps 737 mmHg 86%
    19:00 +7°C° 1.4 mm 4 mps 737 mmHg 86%
    20:00 +7°C° 1.5 mm 4 mps 737 mmHg 85%
    21:00 +7°C° 1.5 mm 5 mps 737 mmHg 85%
    22:00 +7°C° 1.5 mm 6 mps 737 mmHg 84%
    23:00 +7°C° 0.7 mm 6 mps 736 mmHg 85%

    24 January, Thursday

    Time Temperature Precipitation Wind Pressure Humidity
    00:00 +7°C° 0.7 mm 5 mps 736 mmHg 85%
    01:00 +6°C° 0.7 mm 5 mps 736 mmHg 86%
    02:00 +6°C° 0.1 mm 4 mps 736 mmHg 84%
    03:00 +6°C° 0.1 mm 4 mps 736 mmHg 82%
    04:00 +6°C° 0.1 mm 4 mps 735 mmHg 80%
    05:00 +5°C° 0 mm 4 mps 735 mmHg 78%
    06:00 +5°C° 0 mm 4 mps 735 mmHg 76%
    07:00 +5°C° 0 mm 3 mps 735 mmHg 74%
    08:00 +7°C° 0 mm 3 mps 736 mmHg 72%
    09:00 +8°C° 0 mm 3 mps 736 mmHg 70%
    10:00 +8°C° 0 mm 3 mps 736 mmHg 68%
    11:00 +9°C° 0 mm 3 mps 736 mmHg 66%
    12:00 +10°C° 0 mm 3 mps 736 mmHg 64%
    13:00 +11°C° 0 mm 3 mps 736 mmHg 62%
    14:00 +10°C° 0 mm 3 mps 736 mmHg 61%
    15:00 +10°C° 0 mm 4 mps 736 mmHg 60%
    16:00 +10°C° 0 mm 4 mps 736 mmHg 60%
    17:00 +8°C° 0 mm 4 mps 736 mmHg 62%
    18:00 +8°C° 0 mm 3 mps 736 mmHg 64%
    19:00 +7°C° 0 mm 3 mps 737 mmHg 66%
    20:00 +7°C° 0 mm 3 mps 737 mmHg 67%
    21:00 +7°C° 0 mm 2 mps 738 mmHg 68%
    22:00 +6°C° 0 mm 2 mps 738 mmHg 69%
    23:00 +6°C° 0 mm 2 mps 739 mmHg 70%

    25 January, Friday

    Time Temperature Precipitation Wind Pressure Humidity
    00:00 +5°C° 0 mm 3 mps 739 mmHg 70%
    01:00 +5°C° 0 mm 3 mps 740 mmHg 71%
    02:00 +5°C° 0 mm 3 mps 740 mmHg 71%
    03:00 +5°C° 0 mm 3 mps 740 mmHg 71%
    04:00 +5°C° 0 mm 3 mps 740 mmHg 72%
    05:00 +6°C° 0 mm 4 mps 741 mmHg 70%
    06:00 +6°C° 0 mm 4 mps 741 mmHg 68%
    07:00 +6°C° 0 mm 4 mps 742 mmHg 67%
    08:00 +7°C° 0 mm 4 mps 743 mmHg 66%
    09:00 +8°C° 0 mm 3 mps 743 mmHg 66%
    10:00 +8°C° 0 mm 2 mps 744 mmHg 65%
    11:00 +9°C° 0 mm 2 mps 744 mmHg 62%
    12:00 +10°C° 0 mm 2 mps 745 mmHg 59%
    13:00 +12°C° 0 mm 2 mps 745 mmHg 55%
    14:00 +10°C° 0 mm 2 mps 745 mmHg 58%
    15:00 +10°C° 0 mm 2 mps 745 mmHg 60%
    16:00 +10°C° 0 mm 2 mps 746 mmHg 62%
    17:00 +9°C° 0 mm 2 mps 746 mmHg 65%
    18:00 +8°C° 0 mm 2 mps 747 mmHg 68%
    19:00 +7°C° 0 mm 2 mps 747 mmHg 71%
    20:00 +6°C° 0 mm 2 mps 748 mmHg 71%
    21:00 +6°C° 0 mm 2 mps 748 mmHg 70%
    22:00 +5°C° 0 mm 2 mps 748 mmHg 70%
    23:00 +5°C° 0 mm 2 mps 748 mmHg 70%

    26 January, Saturday

    Time Temperature Precipitation Wind Pressure Humidity
    00:00 +5°C° 0 mm 2 mps 749 mmHg 69%
    01:00 +5°C° 0 mm 2 mps 749 mmHg 69%
    02:00 +4°C° 0 mm 2 mps 749 mmHg 69%
    03:00 +4°C° 0 mm 2 mps 749 mmHg 68%
    04:00 +4°C° 0 mm 2 mps 749 mmHg 68%
    05:00 +4°C° 0 mm 2 mps 749 mmHg 68%
    06:00 +4°C° 0 mm 2 mps 749 mmHg 68%
    07:00 +4°C° 0 mm 2 mps 750 mmHg 67%
    08:00 +6°C° 0 mm 1 mps 750 mmHg 63%
    09:00 +7°C° 0 mm 1 mps 750 mmHg 59%
    10:00 +9°C° 0 mm 1 mps 750 mmHg 55%
    11:00 +10°C° 0 mm 1 mps 750 mmHg 53%
    12:00 +11°C° 0 mm 1 mps 750 mmHg 51%
    13:00 +12°C° 0 mm 1 mps 750 mmHg 49%
    14:00 +12°C° 0 mm 1 mps 750 mmHg 51%
    15:00 +12°C° 0 mm 1 mps 750 mmHg 54%
    16:00 +11°C° 0 mm 1 mps 750 mmHg 56%
    17:00 +10°C° 0 mm 1 mps 750 mmHg 60%
    18:00 +9°C° 0 mm 1 mps 750 mmHg 63%
    19:00 +6°C° 0 mm 0 mps 750 mmHg 66%
    20:00 +6°C° 0 mm 0 mps 750 mmHg 68%
    21:00 +7°C° 0 mm 1 mps 750 mmHg 69%
    22:00 +6°C° 0 mm 1 mps 750 mmHg 70%
    23:00 +6°C° 0 mm 1 mps 749 mmHg 71%
    Show more